Powrót do katalogu

COMSTAR 2

AktywnyŁącznośćGEO
NORAD 9047·PAYLOAD·🇺🇸 United States

Wystrzelony Jul 22, 1976 z Cape Canaveral Space Force Station

Loading…

TLE

ŚwieżeSource: Space-Track

Epoka: Sep 14, 2026, 12:05 UTC

1 09047U 76073A   26257.50404054  .00000042  00000-0  00000-0 0  9993
2 09047   7.7379 304.5685 0001522 269.7044 197.5148  0.99969894 48109

Śledź COMSTAR 2 w czasie rzeczywistym z AllMySat

Download on the App Store